Torna al catalogo

CZ-6A DEB

AttivoPO
NORAD 60702·DEBRIS·🇨🇳 China

Lanciato Aug 6, 2024 da Taiyuan Satellite Launch Center

Loading…

Prossimi Passaggi (prossime 24 ore)

TLE

AggiornatoSource: Space-Track

Epoca: Sep 13, 2026, 22:10 UTC

1 60702U 24140DF  26256.92374260  .00002426  00000-0  68841-3 0  9994
2 60702  88.7052 234.1674 0086054  63.1198 297.8768 14.42993610109742

Traccia CZ-6A DEB in tempo reale con AllMySat

Download on the App Store